(278027) = 2006 VC105

Discovered at Kitt Peak on 2006-11-13 by Spacewatch.

Orbit

Orbit type: Main Belt

Note: WebGL enabled browser required.

epoch2024-03-31.0
epoch JD2460400.5
perihelion date2022-05-29.19521
perihelion JD2459728.69521
argument of perihelion (°)97.40532
ascending node (°)26.10239
inclination (°)2.46457
eccentricity0.1613583
perihelion distance (AU)2.0219498
Tisserand w.r.t. Jupiter3.5
ΔV w.r.t. Earth (km/sec)8.9
semimajor axis (AU)2.4109817
mean anomaly (°)176.87077
mean daily motion (°/day)0.26327700
aphelion distance (AU)2.800
period (years)3.74
P-vector [x]-0.55164566
P-vector [y]0.74728894
P-vector [z]0.37046768
Q-vector [x]-0.83386396
Q-vector [y]-0.50419242
Q-vector [z]-0.22463503
absolute magnitude17.19
phase slope0.15
uncertainty0
referenceMPEC 2024-C115
observations used413
oppositions13
arc length (days)11527
first opposition used1991
last opposition used2023
residual rms (arc-secs)0.72
perturbers coarse indicatorM-v
perturbers precise indicator003Ek
first observation date used1991-11-27.0
last observation date used2023-06-19.0
computer nameMPCLINUX
JD of orbit computation2456612.635848
perihelion JD uncertainty (days)8.3445E-05
argument of perihelion uncertainty (°)1.0370E-04
ascending node uncertainty (°)1.0054E-04
inclination uncertainty (°)6.0413E-06
eccentricity uncertainty 5.3351E-08
perihelion distance uncertainty (AU)1.2854E-07
Minimum Orbit Intersection Distances (in AU)
for orbit epoch: 2460200.5, reference: E2024-CB5
Mercury1.69205
Venus1.30421
Earth1.03868
Mars0.37395
Jupiter2.26619
Saturn6.89039
Uranus16.2914
Neptune27.2698

Observations

428 total observations over interval: 1991 11 27.29066 – 2023 06 19.316141
These data are available for download (format description).

Date (UT) J2000 RA J2000 Dec Magn Location Ref
1991 11 27.29066 03 09 21.18 +19 59 14.4 20.6 V 691 – Steward Observatory, Kitt Peak-Spacewatch MPS 192455
1991 11 27.31224 03 09 19.88 +19 59 10.2   691 – Steward Observatory, Kitt Peak-Spacewatch MPS 192455
1991 11 27.33682 03 09 18.32 +19 59 05.7   691 – Steward Observatory, Kitt Peak-Spacewatch MPS 192455
2000 02 06.36395 10 40 19.16 +12 39 58.8 18.8 R 695 – Kitt Peak MPS 192455
2000 02 06.50988 10 40 12.13 +12 40 36.7   695 – Kitt Peak MPS 192455
2002 10 02.94580 01 23 24.39 +08 02 49.0 20.2 V 049 – Uppsala-Kvistaberg MPS 213838
2002 10 02.95821 01 23 23.68 +08 02 44.9 19.7 V 049 – Uppsala-Kvistaberg MPS 213838
2002 10 02.97089 01 23 22.96 +08 02 41.8 19.9 V 049 – Uppsala-Kvistaberg MPS 213838
2002 10 11.26505 01 15 32.21 +07 24 55.1 19.9   704 – Lincoln Laboratory ETS, New Mexico MPS 213838
2002 10 11.28079 01 15 31.21 +07 24 51.2 20.0   704 – Lincoln Laboratory ETS, New Mexico MPS 213838
2002 10 11.31232 01 15 29.32 +07 24 40.9 20.1   704 – Lincoln Laboratory ETS, New Mexico MPS 213838
2004 03 27.28090 13 18 20.86 -07 18 04.3 20.3 V 291 – LPL/Spacewatch II MPS 192455
2004 03 27.30409 13 18 19.55 -07 17 58.5 20.4 V 291 – LPL/Spacewatch II MPS 192455
2004 03 27.32758 13 18 18.22 -07 17 52.7 20.4 V 291 – LPL/Spacewatch II MPS 192455
2006 09 27.35755 04 00 11.73 +21 27 37.0 20.5 V G96 – Mt. Lemmon Survey MPS 192455
2006 09 27.36630 04 00 11.88 +21 27 38.6 20.6 V G96 – Mt. Lemmon Survey MPS 192455
2006 09 27.37494 04 00 12.02 +21 27 39.2 20.8 V G96 – Mt. Lemmon Survey MPS 192455
2006 09 27.38361 04 00 12.13 +21 27 41.0 20.9 V G96 – Mt. Lemmon Survey MPS 192455
2006 10 21.46604 03 57 44.98 +21 58 21.8 20.6 V 691 – Steward Observatory, Kitt Peak-Spacewatch MPS 192455
2006 10 21.48343 03 57 44.41 +21 58 22.0 20.6 V 691 – Steward Observatory, Kitt Peak-Spacewatch MPS 192455
2006 10 21.50083 03 57 43.83 +21 58 22.2 20.6 V 691 – Steward Observatory, Kitt Peak-Spacewatch MPS 192455
2006 10 31.30995 03 51 13.17 +21 55 51.4 19.7 V G96 – Mt. Lemmon Survey MPS 192455
2006 10 31.31708 03 51 12.81 +21 55 50.8 19.7 V G96 – Mt. Lemmon Survey MPS 192455
2006 10 31.32428 03 51 12.42 +21 55 50.6 19.9 V G96 – Mt. Lemmon Survey MPS 192455
2006 10 31.33163 03 51 12.06 +21 55 50.2 20.0 V G96 – Mt. Lemmon Survey MPS 192455
2006 11 13.22464 03 38 56.03 +21 37 59.1   691 – Steward Observatory, Kitt Peak-Spacewatch MPS 188958
2006 11 13.23453 03 38 55.37 +21 37 58.0   691 – Steward Observatory, Kitt Peak-Spacewatch MPS 188958
2006 11 13.24443 03 38 54.73 +21 37 57.1   691 – Steward Observatory, Kitt Peak-Spacewatch MPS 188958
2006 11 18.11750 03 33 39.12 +21 27 18.9 19.8 V 691 – Steward Observatory, Kitt Peak-Spacewatch MPS 188958
2006 11 18.12747 03 33 38.45 +21 27 17.8 19.8 V 691 – Steward Observatory, Kitt Peak-Spacewatch MPS 188958
2006 11 18.13738 03 33 37.77 +21 27 16.6 19.8 V 691 – Steward Observatory, Kitt Peak-Spacewatch MPS 188958
2006 11 18.27010 03 33 28.73 +21 26 59.0 19.3   704 – Lincoln Laboratory ETS, New Mexico MPS 190707
2006 11 18.28249 03 33 27.92 +21 26 59.2 19.6   704 – Lincoln Laboratory ETS, New Mexico MPS 190707
2006 11 18.29483 03 33 26.90 +21 26 55.2 19.6   704 – Lincoln Laboratory ETS, New Mexico MPS 190707
2006 11 18.30716 03 33 26.26 +21 26 53.0 19.9   704 – Lincoln Laboratory ETS, New Mexico MPS 190707
2006 11 20.13187 03 31 26.74 +21 22 27.8 19.8 V 691 – Steward Observatory, Kitt Peak-Spacewatch MPS 190707
2006 11 20.14180 03 31 26.08 +21 22 26.2 19.9 V 691 – Steward Observatory, Kitt Peak-Spacewatch MPS 190707
2006 11 20.15173 03 31 25.42 +21 22 25.0 19.8 V 691 – Steward Observatory, Kitt Peak-Spacewatch MPS 190707
2006 11 21.24423 03 30 13.40 +21 19 40.8 20.1 C 704 – Lincoln Laboratory ETS, New Mexico MPS 293228
2006 11 21.25671 03 30 12.62 +21 19 40.2 19.3 C 704 – Lincoln Laboratory ETS, New Mexico MPS 293228
2006 11 21.26902 03 30 11.69 +21 19 37.8 19.4 C 704 – Lincoln Laboratory ETS, New Mexico MPS 293228
2006 11 21.29364 03 30 10.14 +21 19 33.3 19.0 C 704 – Lincoln Laboratory ETS, New Mexico MPS 293228
2006 12 01.16579 03 19 48.18 +20 53 08.6 19.7 V G96 – Mt. Lemmon Survey MPS 192455
2006 12 01.17116 03 19 47.82 +20 53 07.8 19.8 V G96 – Mt. Lemmon Survey MPS 192455
2006 12 01.17657 03 19 47.53 +20 53 07.2 19.7 V G96 – Mt. Lemmon Survey MPS 192455
2006 12 01.18268 03 19 47.13 +20 53 06.1 19.6 V G96 – Mt. Lemmon Survey MPS 192455
2006 12 10.08210 03 11 56.92 +20 30 01.2   691 – Steward Observatory, Kitt Peak-Spacewatch MPS 192455
2006 12 10.10256 03 11 55.97 +20 29 58.9   691 – Steward Observatory, Kitt Peak-Spacewatch MPS 192455
2006 12 10.12309 03 11 54.98 +20 29 55.9   691 – Steward Observatory, Kitt Peak-Spacewatch MPS 192455
2007 02 09.11505 03 28 44.86 +21 26 32.6 21.2 V G96 – Mt. Lemmon Survey MPS 198760
2007 02 09.12157 03 28 45.33 +21 26 34.0 21.1 V G96 – Mt. Lemmon Survey MPS 198760
2007 02 09.12822 03 28 45.84 +21 26 36.0 20.9 V G96 – Mt. Lemmon Survey MPS 198760
2007 02 09.13478 03 28 46.30 +21 26 37.4 20.9 V G96 – Mt. Lemmon Survey MPS 198760
2010 11 05.42771 07 14 28.06 +25 15 48.6 20.6 V G96 – Mt. Lemmon Survey MPS 355439
2010 11 05.43409 07 14 28.35 +25 15 48.9 20.4 V G96 – Mt. Lemmon Survey MPS 355439
2010 11 05.44049 07 14 28.60 +25 15 49.5 20.6 V G96 – Mt. Lemmon Survey MPS 355439
2010 11 05.44679 07 14 28.86 +25 15 49.2 20.5 V G96 – Mt. Lemmon Survey MPS 355439
2010 12 14.26804 07 15 21.96 +26 33 33.5 20.3   704 – Lincoln Laboratory ETS, New Mexico MPS 359027
2010 12 14.29431 07 15 20.66 +26 33 37.6 19.7   704 – Lincoln Laboratory ETS, New Mexico MPS 359027
2010 12 14.30737 07 15 19.99 +26 33 40.8 20.0   704 – Lincoln Laboratory ETS, New Mexico MPS 359027
2010 12 31.27605 06 59 30.75 +27 20 10.5 19.0   704 – Lincoln Laboratory ETS, New Mexico MPS 363372
2010 12 31.28926 06 59 29.95 +27 20 12.5 19.0   704 – Lincoln Laboratory ETS, New Mexico MPS 363372
2010 12 31.30305 06 59 28.94 +27 20 14.8 19.4   704 – Lincoln Laboratory ETS, New Mexico MPS 363372
2010 12 31.31643 06 59 28.01 +27 20 16.1 19.0   704 – Lincoln Laboratory ETS, New Mexico MPS 363372
2010 12 31.32963 06 59 27.09 +27 20 18.8 19.5   704 – Lincoln Laboratory ETS, New Mexico MPS 363372
2011 01 03.26499 06 56 13.30 +27 26 28.1 19.4 V G96 – Mt. Lemmon Survey MPS 363372
2011 01 03.27406 06 56 12.69 +27 26 29.2 19.2 V G96 – Mt. Lemmon Survey MPS 363372
2011 01 03.28322 06 56 12.04 +27 26 30.3 19.3 V G96 – Mt. Lemmon Survey MPS 363372
2011 01 03.29241 06 56 11.40 +27 26 31.4 19.3 V G96 – Mt. Lemmon Survey MPS 363372
2011 01 15.23641 06 43 20.78 +27 41 59.6 19.2 V G96 – Mt. Lemmon Survey MPS 367068
2011 01 15.24452 06 43 20.28 +27 41 59.7 19.1 V G96 – Mt. Lemmon Survey MPS 367068
2011 01 15.25262 06 43 19.77 +27 42 00.2 19.2 V G96 – Mt. Lemmon Survey MPS 367068
2011 01 15.26065 06 43 19.27 +27 42 00.5 19.4 V G96 – Mt. Lemmon Survey MPS 367068
2011 04 25.28291 07 47 04.784 +23 28 55.03 21.3 w F51 – Pan-STARRS 1, Haleakala MPS 380058
2011 04 25.28776 07 47 05.307 +23 28 53.48 21.3 w F51 – Pan-STARRS 1, Haleakala MPS 380058
2011 04 25.29771 07 47 06.335 +23 28 50.03 21.2 w F51 – Pan-STARRS 1, Haleakala MPS 380058
2013 09 01.40112 23 48 31.68 -03 48 35.2 19.9 V G96 – Mt. Lemmon Survey MPS 476032
2013 09 01.40807 23 48 31.41 -03 48 37.3 20.0 V G96 – Mt. Lemmon Survey MPS 476032
2013 09 01.41501 23 48 31.04 -03 48 39.3 20.5 V G96 – Mt. Lemmon Survey MPS 476032
2013 09 01.42194 23 48 30.69 -03 48 41.7 20.4 V G96 – Mt. Lemmon Survey MPS 476032
2013 09 01.44665 23 48 29.689 -03 48 48.21 20.6 w F51 – Pan-STARRS 1, Haleakala MPS 476032
2013 09 01.46011 23 48 29.003 -03 48 52.15 20.7 w F51 – Pan-STARRS 1, Haleakala MPS 476032
2013 09 01.47354 23 48 28.321 -03 48 56.03 20.7 w F51 – Pan-STARRS 1, Haleakala MPS 476032
2013 09 12.29300 23 38 56.46 -04 44 34.6 19.9 V G96 – Mt. Lemmon Survey MPS 477565
2013 09 12.30198 23 38 55.93 -04 44 37.5 20.0 V G96 – Mt. Lemmon Survey MPS 477565
2013 09 12.31104 23 38 55.42 -04 44 40.3 20.1 V G96 – Mt. Lemmon Survey MPS 477565
2013 09 12.32012 23 38 54.89 -04 44 43.3 20.1 V G96 – Mt. Lemmon Survey MPS 477565
2013 09 23.32016 23 28 36.35 -05 41 23.1 20.2 V G96 – Mt. Lemmon Survey MPS 478625
2013 09 23.32628 23 28 35.99 -05 41 24.8 20.5 V G96 – Mt. Lemmon Survey MPS 478625
